sat.trackr.live / text

‹ back to catalog

MONITOR-3 (RS58S)

NORAD 57180 · 2023-091Q

PAYLOAD ACTIVE UNKNOWN

§ Identity

Operator
Country
CIS
Launch date
2023-06-27
Launch site
VOSTO
Launch vehicle
Mass (kg)
RCS (m²)

Purposes: comms

External: N2YO · Heavens-Above · Gunter

§ Orbital elements

Epoch: 2026-09-19T21:58:35.194368Z

Period
94.15 min
Inclination
97.4986°
Eccentricity
0.0012460
Mean motion
15.29469385 rev/d
Perigee alt
468.9 km
Apogee alt
485.9 km
Semi-major
6,855.5 km
B*
2.5909e-4
RAAN
327.1189°
Arg perigee
122.1060°
Mean anomaly
238.1391°
Rev number
17,876

§ Raw data

MONITOR-3 (RS58S)1 57180U 23091Q   26262.91568512  .00007341  00000+0  25909-3 0  99932 57180  97.4986 327.1189 0012460 122.1060 238.1391 15.29469385178760

JSON: /api/v1/satellites/57180 · /tle

For live sub-satellite position, see the globe view (requires WebGL).

§ Visibility from observer

Set your observer location to see the next 7 days of passes ≥ 10°. The values pass through the URL so the page stays shareable.

No JS? Fill the form by hand. The geolocation button needs JavaScript.

§ Radio — SatNOGS DB

ModeDescriptionDownlinkUplink
GMSK USP Mode U - GMSK 4k8 (USP FEC) TLM 435.290 MHz
GMSK USP Mode U - GMSK 9k6 (USP FEC) 435.290 MHz
SSTV Mode U - Robot 36 SSTV 435.290 MHz

3 transmitters · refreshed weekly from db.satnogs.org